Location: Luz Observatory
(34.5000°N, 117.2833°W)
Time: 01:01:46
(UTC-08:00)

Daily predictions for brighter satellites

Satellite Brightness Start Highest point End
(mag) Time Altitude Azimuth Time Altitude Azimuth Time Altitude Azimuth
USA 234 4.1 03:08:48 10° NE 03:13:26 45° ENE 03:13:26 45° ENE
ADEOS II 4.2 03:19:48 10° NNE 03:21:41 22° NE 03:21:41 22° NE
Cosmos 2369 Rocket 4.2 03:52:42 17° N 03:52:42 17° N 03:54:07 10° N
CZ-4C R/B 2.8 03:52:01 49° ESE 03:52:01 49° ESE 03:57:14 10° NE
Cosmos 1190 Rocket 4.4 04:04:19 57° SE 04:04:19 57° SE 04:08:36 10° SSE
GEOS 3 Rocket 3.9 04:01:42 10° SE 04:06:43 63° NE 04:07:37 53° N
Cosmos 1833 4.3 04:13:34 20° NNW 04:17:34 71° ENE 04:23:08 10° SSE
CZ-4B R/B 4.2 04:18:45 10° NNE 04:22:45 68° E 04:22:45 68° E
Meteor 2-10 Rocket 3.3 04:21:38 49° S 04:23:00 84° E 04:28:04 10° N
ATLAS 5 CENTAUR R/B 3.6 04:27:41 19° NNW 04:27:41 19° NNW 04:29:51 10° N
Cosmos 2221 Rocket 3.6 04:29:47 34° S 04:31:44 85° E 04:36:19 10° N
Cosmos 1943 Rocket 3.2 04:33:16 30° NNW 04:33:16 30° NNW 04:36:50 10° N
Cosmos 1420 Rocket 4.1 04:28:47 15° S 04:33:03 71° ESE 04:38:12 10° NNE
Lacrosse 5 3.2 04:37:39 25° NNW 04:37:39 25° NNW 04:41:10 10° NNE
NOAA 6 4.3 04:34:02 10° NNE 04:39:10 67° ESE 04:44:15 10° S
CZ-4B R/B 4.4 04:37:22 10° N 04:40:37 26° NW 04:40:37 26° NW
Okean 1-7 2.8 04:44:20 19° SSW 04:47:17 74° W 04:51:34 10° N
Cosmos 1782 3.6 04:45:17 10° S 04:49:06 51° E 04:52:58 10° NNE
Thor Agena Rocket 3.4 04:46:09 10° S 04:51:23 81° WSW 04:56:35 10° NNW
Cosmos 1606 3.8 04:52:57 10° SSE 04:56:38 46° E 05:00:22 10° NNE
USA 234 3.9 04:52:06 10° NNE 04:57:58 37° NW 05:00:48 26° W
Cosmos 1452 Rocket 4.0 04:57:22 33° W 04:58:35 38° WNW 05:03:30 10° N
Meteor 1-14 Rocket 4.1 04:54:50 10° NNW 05:00:35 68° W 05:06:11 10° S
Tiangong 1 2.7 05:03:17 20° NNW 05:03:17 20° NNW 05:05:33 10° NE
ADEOS II 3.7 05:00:37 10° NNW 05:02:39 17° NW 05:02:39 17° NW
Cosmos 1023 Rocket 4.4 04:59:01 10° NNW 05:04:17 86° WSW 05:09:33 10° SSE
Cosmos 1782 Rocket 3.7 05:01:54 10° NNW 05:06:13 51° W 05:10:30 10° SSW
DELTA 2 R/B (2) 4.2 05:10:03 36° SSW 05:10:36 45° SSE 05:12:32 10° E
Cosmos 1745 Rocket 3.9 05:07:33 10° N 05:13:43 83° W 05:19:49 10° S
Okean-O 3.5 05:10:10 10° NNW 05:13:53 27° WNW 05:15:05 24° W
Cosmos 1741 Rocket 4.3 05:08:51 10° NNW 05:14:05 69° ENE 05:19:19 10° SSE
SKYMED 2 3.5 05:09:57 10° SSE 05:14:17 87° WSW 05:18:38 10° NNW
Meteor 2-6 Rocket 4.2 05:09:59 10° S 05:15:22 80° E 05:20:46 10° N
Cosmos 407 Rocket 4.5 05:14:49 19° WNW 05:16:58 25° W 05:21:12 10° SSW
Meteor 1-31 Rocket 4.2 05:15:16 10° NNW 05:17:36 20° WNW 05:17:36 20° WNW
ATLAS 3B R/B 2.9 05:11:35 10° SSW 05:19:13 88° WNW 05:26:38 10° NNE
Meteor 1-25 Rocket 4.3 05:21:00 10° NNW 05:26:43 58° W 05:32:25 10° S
Cosmos 1674 Rocket 3.9 05:23:38 10° S 05:27:59 69° E 05:32:23 10° NNE
USA 81 4.1 05:24:29 10° SSW 05:29:40 59° W 05:34:53 10° N
Okean 2 Rocket 3.6 05:28:10 10° NNW 05:32:09 34° W 05:36:07 10° SSW
CZ-4 R/B 3.3 05:29:55 10° NNE 05:33:45 36° E 05:37:31 10° SSE
Cosmos 2219 3.2 05:28:32 10° NNW 05:34:07 62° WSW 05:39:38 10° S
Cosmos 1140 Rocket 3.9 05:30:05 10° NNW 05:34:59 42° WSW 05:39:53 10° S
Cosmos 2227 Rocket 3.6 05:34:07 10° N 05:39:29 41° ENE 05:44:48 10° SE
CZ-4C R/B 3.4 05:37:15 13° W 05:40:38 22° NW 05:45:08 10° N
Cosmos 614 Rocket 4.1 05:36:32 10° NNW 05:41:27 49° WSW 05:46:22 10° S
COSMOS 2455 4.0 05:36:07 10° S 05:41:52 49° ESE 05:47:38 10° NE
CZ-2C R/B 3.3 05:37:49 10° NNE 05:42:41 56° E 05:47:40 10° S
Meteor 1-10 Rocket 4.5 05:41:48 10° SSW 05:47:04 44° WNW 05:52:26 10° N
Delta 2 Rocket 3.9 05:43:00 11° W 05:47:45 82° N 05:53:16 10° E
Meteor 1-11 Rocket 4.1 05:42:31 10° N 05:48:29 75° E 05:54:19 10° SSE
Okean 1 Rocket 4.0 05:46:36 10° N 05:50:55 53° E 05:55:11 10° SSE
Cosmos 2151 Rocket 3.8 05:47:18 10° NNW 05:51:38 47° W 05:55:54 10° SSW
Cosmos 1656 4.4 05:48:46 10° S 05:54:20 60° ESE 05:59:56 10° NNE
Cosmos 1607 4.2 05:48:40 10° SW 05:54:31 47° NW 06:00:27 10° NNE
Cosmos 1633 2.5 05:53:20 10° N 05:56:57 72° W 06:00:31 10° S
PAYLOAD A 3.9 05:55:07 10° N 05:59:49 62° WNW 06:04:38 10° SSW
